Terug naar catalogus

CZ-6A DEB

ActiefPO
NORAD 61146·DEBRIS·🇨🇳 China

Gelanceerd Aug 6, 2024 vanaf Taiyuan Satellite Launch Center

Loading…

Volgende Passages (komende 24 uur)

TLE

VersSource: Space-Track

Epoch: Sep 14, 2026, 00:17 UTC

1 61146U 24140QQ  26257.01245734  .00002159  00000-0  87838-3 0  9991
2 61146  89.1295 276.3324 0077705 299.5827  59.7638 14.25622364107044

Volg CZ-6A DEB in realtime met AllMySat

Download on the App Store